Lexington Weather

Lexington, Massachusetts, USA

43°F
4/22/2024 8:44am 
  • Lexington Conditions: Clear
  • Temperature: 43.3°F / 6.3°CWarmer 3.7°F than last hour.
  • Dew Point: 27.3°FDecreased 2.2°Fsince last hour.
  • Relative Humidity: 53%Decreased 14.0% since last hour.
  • Wind: Calm, 10-min avg: Calm, gust: None
  • Barometer: 29.96 inRising 0.02  inHg/hr Rising Slowly
  • Visibility: 10 miles
  • Rain Today: 0.00 in
  •   

Regional Weather Roundup
for Boston, MA

        
000
ASUS41 KBOX 190210
RWRBOX

REGIONAL WEATHER ROUNDUP
NATIONAL WEATHER SERVICE BOSTON/NORTON MA
1000 PM EDT THU APR 18 2024

NOTE:  "FAIR" INDICATES FEW OR NO CLOUDS BELOW 12,000 FEET WITH NO 
SIGNIFICANT WEATHER AND/OR OBSTRUCTIONS TO VISIBILITY.

MAZALL-190300-
EASTERN MASSACHUSETTS
  
CITY           SKY/WX    TMP DP  RH WIND       PRES   REMARKS
BOSTON         CLOUDY    45  41  86 N6        30.21R                  
BEVERLY        CLOUDY    43  41  93 NW5       30.21R                  
LAWRENCE       CLOUDY    44  41  89 NE3       30.22R                  
BEDFORD        CLOUDY    43  40  89 N3        30.20R                  
NORWOOD        CLOUDY    45  41  86 CALM      30.21R                  
MARSHFIELD     CLOUDY    45  41  87 NE6       30.19R                  
PLYMOUTH       CLOUDY    44  41  89 NE5       30.17R                  
TAUNTON        CLOUDY    45  41  86 N3        30.19R                  
NEW BEDFORD    CLOUDY    44  42  93 NW3       30.18R                  
$$

MAZALL-190300-
CAPE COD AND THE ISLANDS
  
CITY           SKY/WX    TMP DP  RH WIND       PRES   REMARKS
FALMOUTH       CLOUDY    43  39  87 E7        30.16F                  
HYANNIS        CLOUDY    44  36  73 E8        30.13F                  
CHATHAM        CLOUDY    45  39  79 E12       30.16F                  
PROVINCETOWN   PTCLDY    44  40  85 E8        30.17F                  
NANTUCKET      CLOUDY    44  40  85 E13       30.14F                  
MARTHAS VNYRD  CLOUDY    45  41  86 E12       30.14F                  
$$
 
MAZALL-190300-
CENTRAL AND WESTERN MASSACHUSETTS
  
CITY           SKY/WX    TMP DP  RH WIND       PRES   REMARKS
WORCESTER      CLOUDY    41  38  89 N5        30.18S                  
FITCHBURG      CLOUDY    44  40  85 CALM      30.21S                  
ORANGE         CLOUDY    44  39  82 CALM      30.20S                  
SPRINGFIELD    CLOUDY    45  38  76 E3        30.17S                  
WESTFIELD      CLOUDY    44  37  76 NE5       30.19F                  
NORTH ADAMS    CLOUDY    46  37  71 E9        30.17S                  
PITTSFIELD     CLOUDY    42  33  70 E5        30.15S                  
$$
 
RIZALL-190300-
RHODE ISLAND
  
CITY           SKY/WX    TMP DP  RH WIND       PRES   REMARKS
PROVIDENCE     MOCLDY    43  41  93 N9        30.20R                  
NEWPORT        CLOUDY    43  41  93 N5        30.17S                  
BLOCK ISLAND   CLOUDY    43  41  93 NE8       30.18R                  
SMITHFIELD     CLOUDY    41  41 100 N6        30.20R                  
WESTERLY       CLOUDY    44  40  85 NE5       30.18R                  
$$
 
CTZALL-190300-
CONNECTICUT
  
CITY           SKY/WX    TMP DP  RH WIND       PRES   REMARKS
BRADLEY INTL   CLOUDY    47  38  71 NE6       30.19S                  
HARTFORD       CLOUDY    46  39  76 NE7       30.19S                  
PLAINVILLE     CLOUDY    45  41  86 NE3       30.19S                  
BRIDGEPORT     CLOUDY    46  39  76 NE8       30.18F                  
DANBURY        PTCLDY    44  37  76 VRB3      30.19R                  
GROTON         CLOUDY    45  43  93 N7        30.18R                  
NEW HAVEN      CLOUDY    47  41  80 NE6       30.17F                  
CHESTER        CLOUDY    45  43  93 N6        30.18S                  
MERIDEN        CLOUDY    45  38  76 NE3       30.19S                  
WILLIMANTIC    CLOUDY    43  39  86 N5        30.20R                  
OXFORD         PTCLDY    41  38  89 NE7       30.18S                  
$$

MEZ002-015-021-024-NHZ003-005-008-011-012-014-VTZ005-008-190300-
NORTHERN NEW ENGLAND
  
CITY           SKY/WX    TMP DP  RH WIND       PRES   REMARKS
PORTLAND ME    CLOUDY    44  39  82 CALM      30.22R                  
BANGOR ME      PTCLDY    44  32  62 S3        30.19S                  
CONCORD NH     CLOUDY    43  41  93 CALM      30.21F                  
MANCHESTER NH  CLOUDY    45  40  82 CALM      30.19F                  
NASHUA NH      CLOUDY    44  44 100 CALM      30.22S                  
PORTSMOUTH NH  CLOUDY    45  40  84 CALM      30.21R                  
JAFFREY NH     CLOUDY    42  38  85 CALM      30.19S                  
KEENE NH       CLOUDY    42  40  92 CALM      30.20S                  
BURLINGTON VT  LGT RAIN  45  41  86 S8        30.14F                  
MT. WASHINGTON FRZ DRZL  30  30 100 W9          N/A  VSB 1/16WCI  22  
$$

NYZ052-076-190300-
EASTERN NEW YORK
  
CITY           SKY/WX    TMP DP  RH WIND       PRES   REMARKS
ALBANY         CLOUDY    47  36  65 S6        30.19R                  
NEW YORK CITY  MOCLDY    46  37  71 NE8       30.18R                  
$$
 
ANZALL-190300-
MARINE OBSERVATIONS
  
STATION/POSITION TIME  TEMP    WIND        PRES    VSBY  WAVE
                       AIR SEA DIR/SP/G                  HT/PER
                 (UTC) (F)     (DEG/KT/KT) (MB)    (MI)  (FT/S)
BOSTON BUOY      0150   44      30/  6/  8 1022.3R         2/11
BUZZARDS BAY     0100   45      60/ 16/ 17 1021.2F
NANTUCKET SOUND  0150   46 48   80/ 16/ 19 1020.5F         2/ 3
MASS BAY-STELLWA 0004   45 45   10/  8/  8 1022.9R  1 7/8  2/11
ISLE OF SHOALS   0100   44      80/  8/  9 1021.9F
S OF BLOCK IS    0156      44                N/A           5/ 7
$$

......................KEY.........................
  SKY/WX - SKY CONDITION/PRESENT WEATHER
  TMP    - TEMPERATURE IN FAHRENHEIT
  DWPT   - DEWPOINT IN FAHRENHEIT
  RH     - RELATIVE HUMIDITY IN PERCENT
  WIND   - DIRECTION AND SPEED IN MPH
  PRES   - MEAN SEA LEVEL PRESSURE IN INCHES OF HG
  WCI    - WIND CHILL INDEX
  VSB    - VISIBILITY IN MILES
  HX     - HEAT INDEX
  TC     - TEMPERATURE IN CELSIUS
  VRB    - VARIABLE WIND DIRECTION
  N/A    - NOT AVAILABLE
  
      

Other recent Regional Weather Roundups

Mon Apr 22, 8:10am EDT

Mon Apr 22, 7:10am EDT

Mon Apr 22, 6:10am EDT

Mon Apr 22, 5:10am EDT

Mon Apr 22, 4:10am EDT

Mon Apr 22, 3:10am EDT

Mon Apr 22, 2:10am EDT

Mon Apr 22, 1:10am EDT

Mon Apr 22, 12:10am EDT

Sun Apr 21, 11:10pm EDT

Sun Apr 21, 10:10pm EDT

Sun Apr 21, 9:10pm EDT

Sun Apr 21, 8:10pm EDT

Sun Apr 21, 7:10pm EDT

Sun Apr 21, 6:10pm EDT

Sun Apr 21, 5:10pm EDT

Sun Apr 21, 4:10pm EDT

Sun Apr 21, 3:10pm EDT

Sun Apr 21, 2:10pm EDT

Sun Apr 21, 1:10pm EDT

Sun Apr 21, 12:10pm EDT

Sun Apr 21, 11:10am EDT

Sun Apr 21, 10:10am EDT

Sun Apr 21, 9:10am EDT

Sun Apr 21, 8:10am EDT

Sun Apr 21, 7:10am EDT

Sun Apr 21, 6:10am EDT

Sun Apr 21, 5:10am EDT

Sun Apr 21, 4:10am EDT

Sun Apr 21, 3:10am EDT

Sun Apr 21, 2:10am EDT

Sun Apr 21, 1:10am EDT

Sun Apr 21, 12:10am EDT

Sat Apr 20, 11:10pm EDT

Sat Apr 20, 10:10pm EDT

Sat Apr 20, 9:10pm EDT

Sat Apr 20, 8:10pm EDT

Sat Apr 20, 7:10pm EDT

Sat Apr 20, 6:10pm EDT

Sat Apr 20, 5:10pm EDT

Sat Apr 20, 4:10pm EDT

Sat Apr 20, 3:10pm EDT

Sat Apr 20, 2:10pm EDT

Sat Apr 20, 1:10pm EDT

Sat Apr 20, 12:10pm EDT

Sat Apr 20, 11:10am EDT

Sat Apr 20, 10:10am EDT

Sat Apr 20, 9:10am EDT

Sat Apr 20, 8:10am EDT

Sat Apr 20, 7:10am EDT

Sat Apr 20, 6:10am EDT

Sat Apr 20, 5:10am EDT

Sat Apr 20, 4:10am EDT

Sat Apr 20, 3:10am EDT

Sat Apr 20, 2:10am EDT

Sat Apr 20, 1:10am EDT

Sat Apr 20, 12:10am EDT

Fri Apr 19, 11:10pm EDT

Fri Apr 19, 10:10pm EDT

Fri Apr 19, 9:10pm EDT

Fri Apr 19, 8:10pm EDT

Fri Apr 19, 7:10pm EDT

Fri Apr 19, 6:10pm EDT

Fri Apr 19, 5:10pm EDT

Fri Apr 19, 4:10pm EDT

Fri Apr 19, 3:10pm EDT

Fri Apr 19, 2:10pm EDT

Fri Apr 19, 1:10pm EDT

Fri Apr 19, 12:10pm EDT

Fri Apr 19, 11:10am EDT

Fri Apr 19, 10:10am EDT

Fri Apr 19, 9:10am EDT

Fri Apr 19, 8:10am EDT

Fri Apr 19, 7:10am EDT

Fri Apr 19, 6:10am EDT

Fri Apr 19, 5:10am EDT

Fri Apr 19, 4:10am EDT

Fri Apr 19, 3:10am EDT

Fri Apr 19, 2:10am EDT

Fri Apr 19, 1:10am EDT

Fri Apr 19, 12:10am EDT

Thu Apr 18, 11:10pm EDT

Thu Apr 18, 9:10pm EDT

Thu Apr 18, 8:10pm EDT

Thu Apr 18, 7:10pm EDT

Thu Apr 18, 6:10pm EDT

Thu Apr 18, 5:10pm EDT

Thu Apr 18, 4:10pm EDT

Thu Apr 18, 3:10pm EDT

Thu Apr 18, 2:10pm EDT

Thu Apr 18, 1:10pm EDT

Thu Apr 18, 12:10pm EDT

Thu Apr 18, 11:10am EDT

Thu Apr 18, 10:10am EDT

Thu Apr 18, 9:10am EDT

Thu Apr 18, 8:10am EDT

Thu Apr 18, 7:10am EDT

Thu Apr 18, 6:10am EDT

Thu Apr 18, 5:10am EDT

Thu Apr 18, 4:10am EDT

Thu Apr 18, 3:10am EDT

Thu Apr 18, 2:10am EDT

Thu Apr 18, 1:10am EDT

Thu Apr 18, 12:10am EDT

Wed Apr 17, 11:10pm EDT

Wed Apr 17, 10:10pm EDT

Wed Apr 17, 9:10pm EDT

Wed Apr 17, 8:10pm EDT

Wed Apr 17, 7:10pm EDT

Wed Apr 17, 6:10pm EDT

Wed Apr 17, 5:10pm EDT

Wed Apr 17, 4:10pm EDT

Wed Apr 17, 3:10pm EDT

Wed Apr 17, 2:10pm EDT

Wed Apr 17, 1:10pm EDT

Wed Apr 17, 12:10pm EDT

Wed Apr 17, 11:10am EDT

Wed Apr 17, 10:10am EDT

Wed Apr 17, 9:10am EDT

Wed Apr 17, 8:10am EDT

Wed Apr 17, 7:10am EDT

Wed Apr 17, 6:10am EDT

Wed Apr 17, 5:10am EDT

Wed Apr 17, 4:10am EDT

Wed Apr 17, 3:10am EDT

Wed Apr 17, 2:10am EDT

Wed Apr 17, 1:10am EDT

Wed Apr 17, 12:10am EDT

Tue Apr 16, 11:10pm EDT

Tue Apr 16, 10:10pm EDT

Tue Apr 16, 9:10pm EDT

Tue Apr 16, 8:10pm EDT

Tue Apr 16, 7:10pm EDT

Tue Apr 16, 6:10pm EDT

Tue Apr 16, 5:10pm EDT

Tue Apr 16, 4:10pm EDT

Tue Apr 16, 3:10pm EDT

Tue Apr 16, 2:10pm EDT

Tue Apr 16, 1:10pm EDT

Tue Apr 16, 12:10pm EDT

Tue Apr 16, 11:10am EDT

Tue Apr 16, 10:10am EDT

Tue Apr 16, 9:10am EDT

Tue Apr 16, 8:10am EDT

Tue Apr 16, 7:10am EDT

Tue Apr 16, 6:10am EDT

Tue Apr 16, 5:10am EDT

Tue Apr 16, 4:10am EDT

Tue Apr 16, 3:10am EDT

Tue Apr 16, 2:10am EDT

Tue Apr 16, 1:10am EDT

Tue Apr 16, 12:10am EDT

Mon Apr 15, 11:10pm EDT

Mon Apr 15, 10:10pm EDT

Mon Apr 15, 9:10pm EDT

Mon Apr 15, 8:10pm EDT

Mon Apr 15, 7:10pm EDT

Mon Apr 15, 6:10pm EDT

Mon Apr 15, 5:10pm EDT

Mon Apr 15, 4:10pm EDT

Mon Apr 15, 3:10pm EDT

Mon Apr 15, 2:10pm EDT

Mon Apr 15, 1:10pm EDT

Mon Apr 15, 12:10pm EDT

Mon Apr 15, 11:10am EDT

Mon Apr 15, 10:10am EDT

Mon Apr 15, 9:10am EDT